date,time,SUV Intensity [MED/Hr],UV Index,Daily total [MED],Since Last [MED]
28/06/2022,00:09:46,-0.000,0.0,0.0,0.0
28/06/2022,00:10:53,-0.001,0.0,0.0,0.0
28/06/2022,00:11:45,-0.000,0.0,0.0,0.0
28/06/2022,00:12:54,0.000,0.0,0.0,0.0
28/06/2022,00:13:52,0.001,0.0,0.0,0.0
28/06/2022,00:14:45,0.000,0.0,0.0,0.0
28/06/2022,00:15:53,0.000,0.0,0.0,0.0
28/06/2022,00:16:45,0.001,0.0,0.0,0.0
28/06/2022,00:17:45,0.000,0.0,0.0,0.0
28/06/2022,00:18:45,-0.001,0.0,0.0,0.0
28/06/2022,00:19:45,0.000,0.0,0.0,0.0
28/06/2022,00:20:45,0.000,0.0,0.0,0.0
28/06/2022,00:21:45,0.000,0.0,0.0,0.0
28/06/2022,00:22:46,-0.000,0.0,0.0,0.0
28/06/2022,00:23:46,0.000,0.0,0.0,0.0
28/06/2022,00:24:45,0.001,0.0,0.0,0.0
28/06/2022,00:25:46,0.000,0.0,0.0,0.0
28/06/2022,00:26:45,0.001,0.0,0.0,0.0
28/06/2022,00:27:45,0.000,0.0,0.0,0.0
28/06/2022,00:28:54,0.000,0.0,0.0,0.0
28/06/2022,00:30:02,0.001,0.0,0.0,0.0
28/06/2022,00:31:46,0.000,0.0,0.0,0.0
28/06/2022,00:32:46,0.000,0.0,0.0,0.0
28/06/2022,00:33:45,0.001,0.0,0.0,0.0
28/06/2022,00:34:46,-0.001,0.0,0.0,0.0
28/06/2022,00:35:46,0.000,0.0,0.0,0.0
28/06/2022,00:36:45,0.000,0.0,0.0,0.0
28/06/2022,00:37:46,0.000,0.0,0.0,0.0
28/06/2022,00:38:46,0.001,0.0,0.0,0.0
28/06/2022,00:39:46,0.000,0.0,0.0,0.0
28/06/2022,00:40:45,-0.000,0.0,0.0,0.0
28/06/2022,00:41:45,0.001,0.0,0.0,0.0
28/06/2022,00:42:46,0.000,0.0,0.0,0.0
28/06/2022,00:43:45,0.000,0.0,0.0,0.0
28/06/2022,00:44:45,0.001,0.0,0.0,0.0
28/06/2022,00:45:46,0.000,0.0,0.0,0.0
28/06/2022,00:46:45,0.001,0.0,0.0,0.0
28/06/2022,00:47:46,0.000,0.0,0.0,0.0
28/06/2022,00:48:46,0.001,0.0,0.0,0.0
28/06/2022,00:49:46,-0.001,0.0,0.0,0.0
28/06/2022,00:50:45,0.001,0.0,0.0,0.0
28/06/2022,00:51:47,0.001,0.0,0.0,0.0
28/06/2022,00:52:54,0.000,0.0,0.0,0.0
28/06/2022,00:53:45,0.001,0.0,0.0,0.0
28/06/2022,00:54:48,-0.000,0.0,0.0,0.0
28/06/2022,00:55:45,-0.001,0.0,0.0,0.0
28/06/2022,00:56:45,-0.000,0.0,0.0,0.0
28/06/2022,00:57:45,0.000,0.0,0.0,0.0
28/06/2022,00:58:54,0.000,0.0,0.0,0.0
28/06/2022,00:59:45,0.001,0.0,0.0,0.0
28/06/2022,01:00:45,0.000,0.0,0.0,0.0
28/06/2022,01:01:46,0.000,0.0,0.0,0.0
28/06/2022,01:02:54,0.000,0.0,0.0,0.0
28/06/2022,01:03:46,0.000,0.0,0.0,0.0
28/06/2022,01:04:46,-0.001,0.0,0.0,0.0
28/06/2022,01:05:45,0.000,0.0,0.0,0.0
28/06/2022,01:06:45,0.001,0.0,0.0,0.0
28/06/2022,01:07:45,0.001,0.0,0.0,0.0
28/06/2022,01:08:46,0.000,0.0,0.0,0.0
28/06/2022,01:09:54,0.000,0.0,0.0,0.0
28/06/2022,01:10:45,0.000,0.0,0.0,0.0
28/06/2022,01:11:46,0.000,0.0,0.0,0.0
28/06/2022,01:12:46,0.001,0.0,0.0,0.0
28/06/2022,01:13:46,0.000,0.0,0.0,0.0
28/06/2022,01:14:45,0.000,0.0,0.0,0.0
28/06/2022,01:15:45,0.000,0.0,0.0,0.0
28/06/2022,01:16:45,0.000,0.0,0.0,0.0
28/06/2022,01:17:47,0.001,0.0,0.0,0.0
28/06/2022,01:18:46,0.000,0.0,0.0,0.0
28/06/2022,01:19:54,0.000,0.0,0.0,0.0
28/06/2022,01:21:46,0.001,0.0,0.0,0.0
28/06/2022,01:22:45,0.000,0.0,0.0,0.0
28/06/2022,01:23:45,0.000,0.0,0.0,0.0
28/06/2022,01:24:45,0.000,0.0,0.0,0.0
28/06/2022,01:25:45,0.001,0.0,0.0,0.0
28/06/2022,01:26:46,0.000,0.0,0.0,0.0
28/06/2022,01:27:45,0.001,0.0,0.0,0.0
28/06/2022,01:28:45,0.000,0.0,0.0,0.0
28/06/2022,01:29:53,0.001,0.0,0.0,0.0
28/06/2022,01:30:46,0.000,0.0,0.0,0.0
28/06/2022,01:31:45,0.001,0.0,0.0,0.0
28/06/2022,01:32:45,0.001,0.0,0.0,0.0
28/06/2022,01:33:45,-0.000,0.0,0.0,0.0
28/06/2022,01:34:45,0.000,0.0,0.0,0.0
28/06/2022,01:35:53,0.000,0.0,0.0,0.0
28/06/2022,01:37:48,0.000,0.0,0.0,0.0
28/06/2022,01:38:46,0.001,0.0,0.0,0.0
28/06/2022,01:39:46,0.000,0.0,0.0,0.0
28/06/2022,01:40:46,0.000,0.0,0.0,0.0
28/06/2022,01:41:45,0.001,0.0,0.0,0.0
28/06/2022,01:42:46,-0.000,0.0,0.0,0.0
28/06/2022,01:43:46,0.000,0.0,0.0,0.0
28/06/2022,01:44:45,0.001,0.0,0.0,0.0
28/06/2022,01:45:54,-0.000,0.0,0.0,0.0
28/06/2022,01:46:46,-0.001,0.0,0.0,0.0
28/06/2022,01:47:46,0.000,0.0,0.0,0.0
28/06/2022,01:48:46,0.001,0.0,0.0,0.0
28/06/2022,01:49:46,0.000,0.0,0.0,0.0
28/06/2022,01:50:45,0.000,0.0,0.0,0.0
28/06/2022,01:51:46,0.001,0.0,0.0,0.0
28/06/2022,01:52:46,0.000,0.0,0.0,0.0
28/06/2022,01:53:46,0.001,0.0,0.0,0.0
28/06/2022,01:54:46,-0.001,0.0,0.0,0.0
28/06/2022,01:55:54,0.000,0.0,0.0,0.0
28/06/2022,01:56:46,0.001,0.0,0.0,0.0
28/06/2022,01:57:45,0.001,0.0,0.0,0.0
28/06/2022,01:58:45,0.001,0.0,0.0,0.0
28/06/2022,01:59:45,0.001,0.0,0.0,0.0
28/06/2022,02:01:02,0.002,0.0,0.0,0.0
28/06/2022,02:02:46,0.000,0.0,0.0,0.0
28/06/2022,02:03:46,0.001,0.0,0.0,0.0
28/06/2022,02:04:45,-0.000,0.0,0.0,0.0
28/06/2022,02:06:10,0.000,0.0,0.0,0.0
28/06/2022,02:07:46,0.000,0.0,0.0,0.0
28/06/2022,02:08:45,0.000,0.0,0.0,0.0
28/06/2022,02:09:46,0.000,0.0,0.0,0.0
28/06/2022,02:10:46,0.001,0.0,0.0,0.0
28/06/2022,02:11:45,-0.001,0.0,0.0,0.0
28/06/2022,02:12:46,0.001,0.0,0.0,0.0
28/06/2022,02:13:46,0.001,0.0,0.0,0.0
28/06/2022,02:14:46,0.000,0.0,0.0,0.0
28/06/2022,02:15:45,0.000,0.0,0.0,0.0
28/06/2022,02:16:54,-0.000,0.0,0.0,0.0
28/06/2022,02:17:46,0.000,0.0,0.0,0.0
28/06/2022,02:18:46,0.001,0.0,0.0,0.0
28/06/2022,02:19:46,0.001,0.0,0.0,0.0
28/06/2022,02:20:46,0.000,0.0,0.0,0.0
28/06/2022,02:21:46,0.001,0.0,0.0,0.0
28/06/2022,02:22:45,0.000,0.0,0.0,0.0
28/06/2022,02:23:46,0.001,0.0,0.0,0.0
28/06/2022,02:24:45,0.001,0.0,0.0,0.0
28/06/2022,02:25:46,0.001,0.0,0.0,0.0
28/06/2022,02:26:54,0.001,0.0,0.0,0.0
28/06/2022,02:27:46,0.001,0.0,0.0,0.0
28/06/2022,02:28:45,0.001,0.0,0.0,0.0
28/06/2022,02:29:46,-0.001,0.0,0.0,0.0
28/06/2022,02:30:45,0.000,0.0,0.0,0.0
28/06/2022,02:31:54,-0.000,0.0,0.0,0.0
28/06/2022,02:32:54,0.001,0.0,0.0,0.0
28/06/2022,02:33:46,0.000,0.0,0.0,0.0
28/06/2022,02:34:54,0.001,0.0,0.0,0.0
28/06/2022,02:35:46,0.000,0.0,0.0,0.0
28/06/2022,02:36:45,0.001,0.0,0.0,0.0
28/06/2022,02:37:46,0.001,0.0,0.0,0.0
28/06/2022,02:38:46,0.001,0.0,0.0,0.0
28/06/2022,02:39:46,0.001,0.0,0.0,0.0
28/06/2022,02:40:46,0.001,0.0,0.0,0.0
28/06/2022,02:41:37,0.001,0.0,0.0,0.0
28/06/2022,02:42:47,0.001,0.0,0.0,0.0
28/06/2022,02:43:46,0.001,0.0,0.0,0.0
28/06/2022,02:44:46,0.000,0.0,0.0,0.0
28/06/2022,02:45:45,0.001,0.0,0.0,0.0
28/06/2022,02:46:46,0.001,0.0,0.0,0.0
28/06/2022,02:47:46,0.000,0.0,0.0,0.0
28/06/2022,02:48:45,0.000,0.0,0.0,0.0
28/06/2022,02:49:45,0.001,0.0,0.0,0.0
28/06/2022,02:50:47,-0.000,0.0,0.0,0.0
28/06/2022,02:51:45,0.001,0.0,0.0,0.0
28/06/2022,02:52:46,-0.000,0.0,0.0,0.0
28/06/2022,02:53:46,0.000,0.0,0.0,0.0
28/06/2022,02:54:45,0.001,0.0,0.0,0.0
28/06/2022,02:55:46,0.000,0.0,0.0,0.0
28/06/2022,02:56:46,-0.000,0.0,0.0,0.0
28/06/2022,02:57:39,-0.000,0.0,0.0,0.0
28/06/2022,02:58:37,0.001,0.0,0.0,0.0
28/06/2022,02:59:48,0.000,0.0,0.0,0.0
28/06/2022,03:00:46,0.001,0.0,0.0,0.0
28/06/2022,03:01:46,0.001,0.0,0.0,0.0
28/06/2022,03:02:45,0.001,0.0,0.0,0.0
28/06/2022,03:03:46,0.001,0.0,0.0,0.0
28/06/2022,03:04:46,0.001,0.0,0.0,0.0
28/06/2022,03:06:02,0.001,0.0,0.0,0.0
28/06/2022,03:07:46,0.001,0.0,0.0,0.0
28/06/2022,03:08:46,0.001,0.0,0.0,0.0
28/06/2022,03:09:45,0.001,0.0,0.0,0.0
28/06/2022,03:10:46,0.001,0.0,0.0,0.0
28/06/2022,03:11:46,0.001,0.0,0.0,0.0
28/06/2022,03:12:45,0.001,0.0,0.0,0.0
28/06/2022,03:13:46,0.001,0.0,0.0,0.0
28/06/2022,03:14:54,0.002,0.0,0.0,0.0
28/06/2022,03:15:45,0.001,0.0,0.0,0.0
28/06/2022,03:16:45,0.001,0.0,0.0,0.0
28/06/2022,03:17:46,0.002,0.0,0.0,0.0
28/06/2022,03:18:46,0.001,0.0,0.0,0.0
28/06/2022,03:19:45,-0.000,0.0,0.0,0.0
28/06/2022,03:20:54,0.001,0.0,0.0,0.0
28/06/2022,03:21:45,0.002,0.0,0.0,0.0
28/06/2022,03:22:46,0.001,0.0,0.0,0.0
28/06/2022,03:23:46,0.002,0.0,0.0,0.0
28/06/2022,03:24:45,0.001,0.0,0.0,0.0
28/06/2022,03:25:45,0.001,0.0,0.0,0.0
28/06/2022,03:26:46,-0.000,0.0,0.0,0.0
28/06/2022,03:27:45,0.001,0.0,0.0,0.0
28/06/2022,03:28:46,0.001,0.0,0.0,0.0
28/06/2022,03:29:45,0.001,0.0,0.0,0.0
28/06/2022,03:30:54,0.002,0.0,0.0,0.0
28/06/2022,03:31:46,0.001,0.0,0.0,0.0
28/06/2022,03:32:46,0.001,0.0,0.0,0.0
28/06/2022,03:33:54,0.001,0.0,0.0,0.0
28/06/2022,03:34:46,0.001,0.0,0.0,0.0
28/06/2022,03:35:45,0.001,0.0,0.0,0.0
28/06/2022,03:36:46,0.002,0.0,0.0,0.0
28/06/2022,03:37:46,0.001,0.0,0.0,0.0
28/06/2022,03:38:45,0.002,0.0,0.0,0.0
28/06/2022,03:39:46,0.000,0.0,0.0,0.0
28/06/2022,03:40:54,0.001,0.0,0.0,0.0
28/06/2022,03:41:45,0.001,0.0,0.0,0.0
28/06/2022,03:42:46,0.002,0.0,0.0,0.0
28/06/2022,03:43:54,0.002,0.0,0.0,0.0
28/06/2022,03:44:45,0.002,0.0,0.0,0.0
28/06/2022,03:45:45,0.002,0.0,0.0,0.0
28/06/2022,03:46:54,0.002,0.0,0.0,0.0
28/06/2022,03:47:46,0.002,0.0,0.0,0.0
28/06/2022,03:48:45,0.002,0.0,0.0,0.0
28/06/2022,03:49:46,0.002,0.0,0.0,0.0
28/06/2022,03:50:46,0.002,0.0,0.0,0.0
28/06/2022,03:51:45,0.002,0.0,0.0,0.0
28/06/2022,03:52:46,0.002,0.0,0.0,0.0
28/06/2022,03:53:45,0.002,0.0,0.0,0.0
28/06/2022,03:54:46,0.003,0.0,0.0,0.0
28/06/2022,03:55:46,0.002,0.0,0.0,0.0
28/06/2022,03:57:18,0.003,0.0,0.0,0.0
28/06/2022,03:58:46,0.003,0.0,0.0,0.0
28/06/2022,03:59:46,0.004,0.0,0.0,0.0
28/06/2022,04:00:45,0.003,0.0,0.0,0.0
28/06/2022,04:01:45,0.003,0.0,0.0,0.0
28/06/2022,04:02:46,0.003,0.0,0.0,0.0
28/06/2022,04:03:46,0.003,0.0,0.0,0.0
28/06/2022,04:04:54,0.004,0.0,0.0,0.0
28/06/2022,04:05:45,0.005,0.0,0.0,0.0
28/06/2022,04:06:47,0.004,0.0,0.0,0.0
28/06/2022,04:07:46,0.005,0.0,0.0,0.0
28/06/2022,04:08:46,0.005,0.0,0.0,0.0
28/06/2022,04:09:46,0.006,0.0,0.0,0.0
28/06/2022,04:10:46,0.005,0.0,0.0,0.0
28/06/2022,04:11:45,0.005,0.0,0.0,0.0
28/06/2022,04:12:46,0.005,0.0,0.0,0.0
28/06/2022,04:13:46,0.006,0.0,0.0,0.0
28/06/2022,04:14:54,0.006,0.0,0.0,0.0
28/06/2022,04:16:53,0.006,0.0,0.0,0.0
28/06/2022,04:17:54,0.007,0.0,0.0,0.0
28/06/2022,04:18:46,0.007,0.0,0.0,0.0
28/06/2022,04:19:45,0.008,0.0,0.001,0.001
28/06/2022,04:20:54,0.007,0.0,0.001,0.0
28/06/2022,04:21:54,0.008,0.0,0.001,0.0
28/06/2022,04:22:46,0.008,0.0,0.001,0.0
28/06/2022,04:23:46,0.009,0.0,0.001,0.0
28/06/2022,04:24:45,0.010,0.0,0.001,0.0
28/06/2022,04:25:46,0.009,0.0,0.001,0.0
28/06/2022,04:26:46,0.009,0.0,0.002,0.001
28/06/2022,04:27:45,0.010,0.0,0.002,0.0
28/06/2022,04:28:46,0.010,0.0,0.002,0.0
28/06/2022,04:29:46,0.010,0.0,0.002,0.0
28/06/2022,04:30:54,0.011,0.0,0.002,0.0
28/06/2022,04:32:54,0.012,0.0,0.003,0.001
28/06/2022,04:33:45,0.012,0.0,0.003,0.0
28/06/2022,04:34:47,0.012,0.0,0.003,0.0
28/06/2022,04:35:58,0.013,0.0,0.003,0.0
28/06/2022,04:37:46,0.014,0.0,0.004,0.001
28/06/2022,04:38:54,0.014,0.0,0.004,0.0
28/06/2022,04:39:45,0.015,0.0,0.004,0.0
28/06/2022,04:40:46,0.015,0.0,0.004,0.0
28/06/2022,04:41:54,0.016,0.0,0.005,0.001
28/06/2022,04:42:46,0.016,0.0,0.005,0.0
28/06/2022,04:43:46,0.018,0.0,0.005,0.0
28/06/2022,04:44:46,0.018,0.0,0.005,0.0
28/06/2022,04:45:45,0.018,0.0,0.006,0.001
28/06/2022,04:46:45,0.018,0.0,0.006,0.0
28/06/2022,04:47:46,0.019,0.0,0.006,0.0
28/06/2022,04:48:46,0.021,0.0,0.007,0.001
28/06/2022,04:49:46,0.020,0.0,0.007,0.0
28/06/2022,04:50:46,0.020,0.0,0.007,0.0
28/06/2022,04:51:54,0.022,0.0,0.008,0.001
28/06/2022,04:52:45,0.021,0.0,0.008,0.0
28/06/2022,04:53:46,0.023,0.0,0.008,0.0
28/06/2022,04:54:54,0.025,0.0,0.009,0.001
28/06/2022,04:55:46,0.023,0.0,0.009,0.0
28/06/2022,04:56:46,0.025,0.0,0.01,0.001
28/06/2022,04:57:46,0.027,0.0,0.01,0.0
28/06/2022,04:58:46,0.027,0.0,0.011,0.001
28/06/2022,04:59:46,0.027,0.0,0.011,0.0
28/06/2022,05:00:46,0.028,0.0,0.011,0.0
28/06/2022,05:01:45,0.029,0.0,0.012,0.001
28/06/2022,05:02:46,0.030,0.0,0.012,0.0
28/06/2022,05:03:46,0.031,0.0,0.013,0.001
28/06/2022,05:04:54,0.032,0.0,0.014,0.001
28/06/2022,05:05:54,0.034,0.0,0.014,0.0
28/06/2022,05:06:45,0.034,0.0,0.015,0.001
28/06/2022,05:07:46,0.034,0.0,0.015,0.0
28/06/2022,05:08:46,0.035,0.0,0.016,0.001
28/06/2022,05:09:46,0.036,0.0,0.016,0.0
28/06/2022,05:10:46,0.036,0.0,0.017,0.001
28/06/2022,05:11:46,0.038,0.0,0.017,0.0
28/06/2022,05:12:54,0.039,0.0,0.018,0.001
28/06/2022,05:13:46,0.040,0.0,0.019,0.001
28/06/2022,05:14:46,0.041,0.0,0.019,0.0
28/06/2022,05:16:02,0.043,0.0,0.02,0.001
28/06/2022,05:17:46,0.044,0.0,0.022,0.002
28/06/2022,05:18:46,0.046,0.0,0.022,0.0
28/06/2022,05:19:46,0.046,0.0,0.023,0.001
28/06/2022,05:20:46,0.048,0.0,0.024,0.001
28/06/2022,05:21:46,0.049,0.0,0.025,0.001
28/06/2022,05:22:54,0.049,0.0,0.026,0.001
28/06/2022,05:23:46,0.051,0.0,0.026,0.0
28/06/2022,05:24:46,0.053,0.0,0.027,0.001
28/06/2022,05:25:54,0.054,0.0,0.028,0.001
28/06/2022,05:26:45,0.056,0.0,0.029,0.001
28/06/2022,05:27:46,0.057,0.0,0.03,0.001
28/06/2022,05:28:46,0.057,0.0,0.031,0.001
28/06/2022,05:29:45,0.061,0.0,0.032,0.001
28/06/2022,05:30:46,0.061,0.0,0.033,0.001
28/06/2022,05:31:46,0.061,0.0,0.034,0.001
28/06/2022,05:32:46,0.064,0.0,0.035,0.001
28/06/2022,05:33:45,0.065,0.0,0.036,0.001
28/06/2022,05:34:46,0.067,0.0,0.037,0.001
28/06/2022,05:35:46,0.068,0.0,0.038,0.001
28/06/2022,05:36:46,0.070,0.0,0.039,0.001
28/06/2022,05:37:46,0.073,0.0,0.041,0.002
28/06/2022,05:38:46,0.075,0.0,0.042,0.001
28/06/2022,05:39:46,0.077,0.0,0.043,0.001
28/06/2022,05:40:46,0.079,0.0,0.044,0.001
28/06/2022,05:41:46,0.081,0.0,0.046,0.002
28/06/2022,05:42:46,0.083,0.0,0.047,0.001
28/06/2022,05:43:46,0.084,0.0,0.049,0.002
28/06/2022,05:44:39,0.086,0.0,0.05,0.001
28/06/2022,05:45:47,0.087,0.0,0.051,0.001
28/06/2022,05:46:54,0.090,0.0,0.053,0.002
28/06/2022,05:47:45,0.091,0.0,0.054,0.001
28/06/2022,05:48:46,0.093,0.0,0.056,0.002
28/06/2022,05:49:46,0.096,0.0,0.057,0.001
28/06/2022,05:50:46,0.098,0.0,0.059,0.002
28/06/2022,05:51:46,0.100,0.0,0.061,0.002
28/06/2022,05:52:46,0.103,0.0,0.062,0.001
28/06/2022,05:53:46,0.105,0.0,0.064,0.002
28/06/2022,05:54:45,0.107,0.0,0.066,0.002
28/06/2022,05:55:46,0.111,0.0,0.068,0.002
28/06/2022,05:56:46,0.113,0.0,0.07,0.002
28/06/2022,05:57:46,0.116,0.0,0.072,0.002
28/06/2022,05:58:46,0.118,0.0,0.074,0.002
28/06/2022,05:59:54,0.121,0.0,0.076,0.002
28/06/2022,06:00:46,0.123,0.0,0.078,0.002
28/06/2022,06:01:46,0.126,0.0,0.08,0.002
28/06/2022,06:02:46,0.128,0.0,0.082,0.002
28/06/2022,06:03:46,0.130,0.0,0.084,0.002
28/06/2022,06:04:46,0.131,0.0,0.086,0.002
28/06/2022,06:06:20,0.135,0.0,0.09,0.004
28/06/2022,06:07:46,0.138,0.0,0.093,0.003
28/06/2022,06:08:46,0.141,0.0,0.095,0.002
28/06/2022,06:09:46,0.142,0.0,0.098,0.003
28/06/2022,06:10:46,0.145,0.0,0.1,0.002
28/06/2022,06:11:46,0.146,0.0,0.102,0.002
28/06/2022,06:12:46,0.147,0.0,0.105,0.003
28/06/2022,06:13:54,0.148,0.0,0.108,0.003
28/06/2022,06:14:46,0.152,0.0,0.11,0.002
28/06/2022,06:15:46,0.155,0.0,0.112,0.002
28/06/2022,06:16:46,0.157,0.0,0.115,0.003
28/06/2022,06:17:46,0.163,0.0,0.118,0.003
28/06/2022,06:18:46,0.164,0.0,0.12,0.002
28/06/2022,06:19:46,0.167,0.0,0.123,0.003
28/06/2022,06:20:46,0.168,0.0,0.126,0.003
28/06/2022,06:21:46,0.169,0.0,0.129,0.003
28/06/2022,06:22:46,0.171,0.0,0.131,0.002
28/06/2022,06:23:54,0.168,0.0,0.135,0.004
28/06/2022,06:24:47,0.176,0.0,0.137,0.002
28/06/2022,06:25:46,0.182,0.0,0.14,0.003
28/06/2022,06:26:46,0.183,0.0,0.143,0.003
28/06/2022,06:27:46,0.189,0.0,0.146,0.003
28/06/2022,06:28:46,0.199,0.0,0.15,0.004
28/06/2022,06:29:46,0.202,0.0,0.153,0.003
28/06/2022,06:30:46,0.206,0.0,0.156,0.003
28/06/2022,06:31:46,0.213,0.0,0.16,0.004
28/06/2022,06:32:46,0.218,1.0,0.163,0.003
28/06/2022,06:33:54,0.223,1.0,0.167,0.004
28/06/2022,06:34:46,0.229,1.0,0.171,0.004
28/06/2022,06:35:46,0.212,0.0,0.175,0.004
28/06/2022,06:36:54,0.239,1.0,0.179,0.004
28/06/2022,06:38:47,0.245,1.0,0.187,0.008
28/06/2022,06:39:46,0.249,1.0,0.191,0.004
28/06/2022,06:40:46,0.252,1.0,0.195,0.004
28/06/2022,06:41:46,0.249,1.0,0.199,0.004
28/06/2022,06:42:46,0.256,1.0,0.203,0.004
28/06/2022,06:43:46,0.260,1.0,0.207,0.004
28/06/2022,06:44:46,0.267,1.0,0.212,0.005
28/06/2022,06:45:46,0.276,1.0,0.216,0.004
28/06/2022,06:46:46,0.278,1.0,0.221,0.005
28/06/2022,06:47:46,0.285,1.0,0.225,0.004
28/06/2022,06:48:46,0.291,1.0,0.23,0.005
28/06/2022,06:49:46,0.299,1.0,0.235,0.005
28/06/2022,06:50:46,0.300,1.0,0.24,0.005
28/06/2022,06:51:46,0.309,1.0,0.245,0.005
28/06/2022,06:52:46,0.312,1.0,0.25,0.005
28/06/2022,06:53:46,0.317,1.0,0.255,0.005
28/06/2022,06:54:55,0.325,1.0,0.261,0.006
28/06/2022,06:55:46,0.278,1.0,0.266,0.005
28/06/2022,06:56:46,0.331,1.0,0.271,0.005
28/06/2022,06:57:46,0.333,1.0,0.277,0.006
28/06/2022,06:58:46,0.335,1.0,0.283,0.006
28/06/2022,06:59:46,0.329,1.0,0.288,0.005
28/06/2022,07:00:46,0.343,1.0,0.294,0.006
28/06/2022,07:01:46,0.355,1.0,0.299,0.005
28/06/2022,07:02:46,0.363,1.0,0.305,0.006
28/06/2022,07:03:46,0.365,1.0,0.311,0.006
28/06/2022,07:04:54,0.370,1.0,0.318,0.007
28/06/2022,07:05:46,0.374,1.0,0.324,0.006
28/06/2022,07:06:46,0.378,1.0,0.33,0.006
28/06/2022,07:07:54,0.397,1.0,0.337,0.007
28/06/2022,07:09:47,0.403,1.0,0.35,0.013
28/06/2022,07:10:54,0.352,1.0,0.357,0.007
28/06/2022,07:11:46,0.387,1.0,0.363,0.006
28/06/2022,07:12:46,0.343,1.0,0.369,0.006
28/06/2022,07:13:46,0.331,1.0,0.375,0.006
28/06/2022,07:14:46,0.393,1.0,0.382,0.007
28/06/2022,07:15:46,0.338,1.0,0.387,0.005
28/06/2022,07:16:46,0.452,1.0,0.393,0.006
28/06/2022,07:17:46,0.462,1.0,0.401,0.008
28/06/2022,07:18:46,0.472,1.0,0.409,0.008
28/06/2022,07:19:46,0.475,1.0,0.416,0.007
28/06/2022,07:20:46,0.479,1.0,0.424,0.008
28/06/2022,07:21:55,0.478,1.0,0.433,0.009
28/06/2022,07:22:46,0.474,1.0,0.439,0.006
28/06/2022,07:23:46,0.415,1.0,0.447,0.008
28/06/2022,07:24:47,0.356,1.0,0.454,0.007
28/06/2022,07:25:46,0.397,1.0,0.46,0.006
28/06/2022,07:26:46,0.340,1.0,0.466,0.006
28/06/2022,07:27:46,0.290,1.0,0.471,0.005
28/06/2022,07:28:46,0.303,1.0,0.476,0.005
28/06/2022,07:29:46,0.295,1.0,0.481,0.005
28/06/2022,07:30:46,0.314,1.0,0.486,0.005
28/06/2022,07:31:55,0.314,1.0,0.492,0.006
28/06/2022,07:32:47,0.325,1.0,0.496,0.004
28/06/2022,07:33:54,0.372,1.0,0.503,0.007
28/06/2022,07:34:54,0.336,1.0,0.509,0.006
28/06/2022,07:35:46,0.388,1.0,0.514,0.005
28/06/2022,07:36:46,0.428,1.0,0.52,0.006
28/06/2022,07:37:46,0.381,1.0,0.527,0.007
28/06/2022,07:38:46,0.512,1.0,0.535,0.008
28/06/2022,07:39:46,0.468,1.0,0.541,0.006
28/06/2022,07:40:54,0.487,1.0,0.55,0.009
28/06/2022,07:41:46,0.535,1.0,0.557,0.007
28/06/2022,07:42:46,0.455,1.0,0.566,0.009
28/06/2022,07:43:46,0.598,1.0,0.575,0.009
28/06/2022,07:44:46,0.562,1.0,0.584,0.009
28/06/2022,07:45:46,0.441,1.0,0.592,0.008
28/06/2022,07:46:46,0.439,1.0,0.599,0.007
28/06/2022,07:47:54,0.653,2.0,0.609,0.01
28/06/2022,07:48:55,0.660,2.0,0.62,0.011
28/06/2022,07:49:46,0.658,2.0,0.629,0.009
28/06/2022,07:50:46,0.689,2.0,0.64,0.011
28/06/2022,07:51:47,0.703,2.0,0.652,0.012
28/06/2022,07:52:46,0.500,1.0,0.663,0.011
28/06/2022,07:53:47,0.667,2.0,0.673,0.01
28/06/2022,07:54:46,0.710,2.0,0.683,0.01
28/06/2022,07:55:46,0.725,2.0,0.695,0.012
28/06/2022,07:56:46,0.734,2.0,0.707,0.012
28/06/2022,07:57:46,0.522,1.0,0.716,0.009
28/06/2022,07:58:46,0.760,2.0,0.728,0.012
28/06/2022,07:59:46,0.690,2.0,0.739,0.011
28/06/2022,08:00:46,0.784,2.0,0.752,0.013
28/06/2022,08:01:46,0.799,2.0,0.765,0.013
28/06/2022,08:02:47,0.805,2.0,0.778,0.013
28/06/2022,08:03:46,0.815,2.0,0.792,0.014
28/06/2022,08:04:46,0.830,2.0,0.806,0.014
28/06/2022,08:05:46,0.844,2.0,0.82,0.014
28/06/2022,08:07:08,0.839,2.0,0.839,0.019
28/06/2022,08:08:47,0.857,2.0,0.862,0.023
28/06/2022,08:09:46,0.876,2.0,0.876,0.014
28/06/2022,08:10:46,0.885,2.0,0.891,0.015
28/06/2022,08:11:55,0.869,2.0,0.907,0.016
28/06/2022,08:13:46,0.893,2.0,0.935,0.028
28/06/2022,08:14:46,0.903,2.0,0.95,0.015
28/06/2022,08:15:47,0.897,2.0,0.965,0.015
28/06/2022,08:16:46,0.891,2.0,0.979,0.014
28/06/2022,08:17:47,0.730,2.0,0.993,0.014
28/06/2022,08:18:46,0.619,1.0,1.004,0.011
28/06/2022,08:19:47,0.911,2.0,1.015,0.011
28/06/2022,08:20:47,0.910,2.0,1.031,0.016
28/06/2022,08:21:46,0.714,2.0,1.044,0.013
28/06/2022,08:22:46,0.609,1.0,1.054,0.01
28/06/2022,08:23:46,0.928,2.0,1.066,0.012
28/06/2022,08:24:47,0.620,1.0,1.078,0.012
28/06/2022,08:25:46,0.620,1.0,1.089,0.011
28/06/2022,08:26:46,0.637,1.0,1.102,0.013
28/06/2022,08:27:46,0.631,1.0,1.112,0.01
28/06/2022,08:28:55,0.858,2.0,1.127,0.015
28/06/2022,08:29:46,0.756,2.0,1.137,0.01
28/06/2022,08:30:46,0.677,2.0,1.151,0.014
28/06/2022,08:31:54,0.679,2.0,1.165,0.014
28/06/2022,08:32:46,0.838,2.0,1.177,0.012
28/06/2022,08:33:46,0.745,2.0,1.19,0.013
28/06/2022,08:34:46,0.758,2.0,1.204,0.014
28/06/2022,08:35:46,0.798,2.0,1.218,0.014
28/06/2022,08:36:46,0.793,2.0,1.234,0.016
28/06/2022,08:37:46,0.693,2.0,1.246,0.012
28/06/2022,08:38:48,0.635,1.0,1.257,0.011
28/06/2022,08:39:46,0.663,2.0,1.268,0.011
28/06/2022,08:40:46,0.942,2.0,1.28,0.012
28/06/2022,08:41:55,0.630,1.0,1.293,0.013
28/06/2022,08:42:46,0.575,1.0,1.301,0.008
28/06/2022,08:43:46,0.529,1.0,1.31,0.009
28/06/2022,08:44:46,0.655,2.0,1.32,0.01
28/06/2022,08:45:46,0.616,1.0,1.331,0.011
28/06/2022,08:46:46,0.478,1.0,1.341,0.01
28/06/2022,08:47:46,0.402,1.0,1.348,0.007
28/06/2022,08:48:47,0.363,1.0,1.354,0.006
28/06/2022,08:49:46,0.358,1.0,1.36,0.006
28/06/2022,08:50:48,0.411,1.0,1.367,0.007
28/06/2022,08:51:47,0.391,1.0,1.374,0.007
28/06/2022,08:52:46,0.426,1.0,1.381,0.007
28/06/2022,08:53:46,0.464,1.0,1.389,0.008
28/06/2022,08:54:46,0.442,1.0,1.396,0.007
28/06/2022,08:55:46,0.366,1.0,1.403,0.007
28/06/2022,08:56:46,0.301,1.0,1.409,0.006
28/06/2022,08:57:54,0.261,1.0,1.414,0.005
28/06/2022,08:58:55,0.269,1.0,1.418,0.004
28/06/2022,09:00:47,0.315,1.0,1.427,0.009
28/06/2022,09:01:46,0.362,1.0,1.433,0.006
28/06/2022,09:02:46,0.435,1.0,1.439,0.006
28/06/2022,09:03:46,0.834,2.0,1.448,0.009
28/06/2022,09:04:47,1.010,2.0,1.463,0.015
28/06/2022,09:05:47,1.114,3.0,1.481,0.018
28/06/2022,09:06:46,1.150,3.0,1.5,0.019
28/06/2022,09:07:47,1.241,3.0,1.52,0.02
28/06/2022,09:08:46,1.256,3.0,1.541,0.021
28/06/2022,09:09:46,1.303,3.0,1.562,0.021
28/06/2022,09:10:46,1.346,3.0,1.584,0.022
28/06/2022,09:11:47,1.419,3.0,1.608,0.024
28/06/2022,09:12:46,1.465,3.0,1.631,0.023
28/06/2022,09:13:46,1.166,3.0,1.655,0.024
28/06/2022,09:14:46,1.421,3.0,1.675,0.02
28/06/2022,09:15:47,0.959,2.0,1.694,0.019
28/06/2022,09:16:46,0.969,2.0,1.71,0.016
28/06/2022,09:17:46,1.115,3.0,1.729,0.019
28/06/2022,09:18:54,1.181,3.0,1.751,0.022
28/06/2022,09:19:46,0.891,2.0,1.766,0.015
28/06/2022,09:20:46,0.818,2.0,1.78,0.014
28/06/2022,09:21:46,0.805,2.0,1.793,0.013
28/06/2022,09:22:46,0.833,2.0,1.807,0.014
28/06/2022,09:23:47,1.365,3.0,1.823,0.016
28/06/2022,09:24:47,1.494,3.0,1.847,0.024
28/06/2022,09:25:46,1.177,3.0,1.87,0.023
28/06/2022,09:26:46,1.350,3.0,1.893,0.023
28/06/2022,09:27:46,0.963,2.0,1.913,0.02
28/06/2022,09:28:46,1.006,2.0,1.93,0.017
28/06/2022,09:29:48,1.475,3.0,1.952,0.022
28/06/2022,09:30:47,1.484,3.0,1.976,0.024
28/06/2022,09:31:55,1.546,4.0,2.004,0.028
28/06/2022,09:32:46,1.491,3.0,2.025,0.021
28/06/2022,09:33:46,1.135,3.0,2.047,0.022
28/06/2022,09:34:55,0.908,2.0,2.063,0.016
28/06/2022,09:35:46,1.269,3.0,2.077,0.014
28/06/2022,09:36:46,0.814,2.0,2.093,0.016
28/06/2022,09:37:47,0.804,2.0,2.107,0.014
28/06/2022,09:38:47,1.441,3.0,2.123,0.016
28/06/2022,09:39:46,1.573,4.0,2.148,0.025
28/06/2022,09:40:46,1.106,3.0,2.167,0.019
28/06/2022,09:41:46,1.632,4.0,2.192,0.025
28/06/2022,09:42:47,1.701,4.0,2.218,0.026
28/06/2022,09:43:46,1.723,4.0,2.247,0.029
28/06/2022,09:44:54,1.645,4.0,2.279,0.032
28/06/2022,09:46:47,0.986,2.0,2.321,0.042
28/06/2022,09:47:55,1.200,3.0,2.341,0.02
28/06/2022,09:48:46,0.887,2.0,2.355,0.014
28/06/2022,09:49:46,0.867,2.0,2.369,0.014
28/06/2022,09:50:47,0.884,2.0,2.384,0.015
28/06/2022,09:51:46,0.908,2.0,2.399,0.015
28/06/2022,09:52:47,0.981,2.0,2.414,0.015
28/06/2022,09:53:46,1.043,2.0,2.431,0.017
28/06/2022,09:54:47,1.035,2.0,2.451,0.02
28/06/2022,09:55:47,1.708,4.0,2.469,0.018
28/06/2022,09:56:46,1.335,3.0,2.493,0.024
28/06/2022,09:57:46,1.085,2.0,2.513,0.02
28/06/2022,09:58:46,1.068,2.0,2.534,0.021
28/06/2022,09:59:46,1.038,2.0,2.551,0.017
28/06/2022,10:00:46,1.037,2.0,2.568,0.017
28/06/2022,10:01:46,1.070,2.0,2.586,0.018
28/06/2022,10:02:48,1.065,2.0,2.605,0.019
28/06/2022,10:03:46,1.034,2.0,2.622,0.017
28/06/2022,10:04:46,1.053,2.0,2.641,0.019
28/06/2022,10:05:46,0.968,2.0,2.657,0.016
28/06/2022,10:06:47,0.929,2.0,2.673,0.016
28/06/2022,10:07:46,0.959,2.0,2.689,0.016
28/06/2022,10:08:47,0.982,2.0,2.705,0.016
28/06/2022,10:09:47,0.980,2.0,2.721,0.016
28/06/2022,10:10:54,0.974,2.0,2.74,0.019
28/06/2022,10:11:47,0.972,2.0,2.754,0.014
28/06/2022,10:12:46,0.974,2.0,2.77,0.016
28/06/2022,10:13:46,0.981,2.0,2.786,0.016
28/06/2022,10:14:46,0.976,2.0,2.802,0.016
28/06/2022,10:15:47,1.024,2.0,2.819,0.017
28/06/2022,10:16:46,1.675,4.0,2.84,0.021
28/06/2022,10:17:47,1.400,3.0,2.862,0.022
28/06/2022,10:18:46,1.188,3.0,2.885,0.023
28/06/2022,10:19:46,1.171,3.0,2.904,0.019
28/06/2022,10:20:55,1.226,3.0,2.927,0.023
28/06/2022,10:21:46,1.460,3.0,2.946,0.019